VOE185 LFBI-LFLL

Flight info

Callsign VOE185
Flight time 0h 37m
Altitude 19000
Route BALAN R66 RISUN V18 ENESO J924 LESPI
Aircraft A320/M-SDE3FGHIRWY/LB1

Departure

Time 2026-04-30 21:11
Airport Poitiers-Biard Airport (LFBI)

Arrival

Time 2026-04-30 21:49
Airport Lyon Saint-Exupéry Airport (LFLL)
Time Latitude Longitude Altitude Speed Heading
2026-04-30 20:43 46.58684 0.31083 422 ft 0 kts 256°
2026-04-30 21:06 46.58683 0.31080 431 ft 2 kts 256°
2026-04-30 21:06 46.58676 0.31041 444 ft 5 kts 255°
2026-04-30 21:07 46.58662 0.31002 427 ft 4 kts 231°
2026-04-30 21:07 46.58645 0.30982 424 ft 3 kts 216°
2026-04-30 21:07 46.58633 0.30965 430 ft 3 kts 229°
2026-04-30 21:07 46.58638 0.30900 430 ft 11 kts 299°
2026-04-30 21:08 46.58694 0.30779 423 ft 17 kts 304°
2026-04-30 21:08 46.58709 0.30655 425 ft 14 kts 229°
2026-04-30 21:08 46.58616 0.30573 422 ft 18 kts 210°
2026-04-30 21:08 46.58505 0.30477 416 ft 19 kts 211°
2026-04-30 21:09 46.58379 0.30369 415 ft 22 kts 210°
2026-04-30 21:09 46.58246 0.30255 418 ft 23 kts 211°
2026-04-30 21:09 46.58109 0.30137 418 ft 22 kts 211°
2026-04-30 21:09 46.58011 0.30073 426 ft 9 kts 173°
2026-04-30 21:10 46.57966 0.30049 423 ft 7 kts 264°
2026-04-30 21:10 46.57995 0.30041 416 ft 4 kts 25°
2026-04-30 21:10 46.58000 0.30045 422 ft 0 kts 29°
2026-04-30 21:10 46.58006 0.30050 421 ft 7 kts 29°
2026-04-30 21:11 46.58246 0.30256 422 ft 79 kts 30°
2026-04-30 21:11 46.58909 0.30823 425 ft 138 kts 30°
2026-04-30 21:11 46.59848 0.31623 662 ft 161 kts 30°
2026-04-30 21:11 46.60796 0.32447 1376 ft 158 kts 31°
2026-04-30 21:12 46.61724 0.33243 2004 ft 155 kts 32°
2026-04-30 21:12 46.62677 0.34060 2350 ft 168 kts 31°
2026-04-30 21:12 46.63373 0.34659 2489 ft 183 kts 31°
2026-04-30 21:12 46.64568 0.35689 2665 ft 213 kts 31°
2026-04-30 21:13 46.65881 0.36936 2991 ft 238 kts 45°
2026-04-30 21:13 46.66738 0.39024 3564 ft 250 kts 77°
2026-04-30 21:13 46.66733 0.42497 4375 ft 267 kts 96°
2026-04-30 21:13 46.66565 0.45218 5263 ft 272 kts 96°
2026-04-30 21:14 46.66453 0.47077 5892 ft 274 kts 96°
2026-04-30 21:14 46.66224 0.49836 6829 ft 275 kts 105°
2026-04-30 21:14 46.65610 0.52464 7718 ft 275 kts 114°
2026-04-30 21:14 46.64895 0.55060 8619 ft 277 kts 114°
2026-04-30 21:15 46.64190 0.57643 9506 ft 280 kts 113°
2026-04-30 21:15 46.63470 0.60283 10363 ft 283 kts 113°
2026-04-30 21:15 46.62713 0.63045 10701 ft 305 kts 113°
2026-04-30 21:15 46.61895 0.66020 10954 ft 327 kts 113°
2026-04-30 21:16 46.61034 0.69146 11528 ft 337 kts 113°
2026-04-30 21:16 46.60162 0.72327 12269 ft 341 kts 113°
2026-04-30 21:16 46.59281 0.75546 13021 ft 344 kts 113°
2026-04-30 21:16 46.58389 0.78801 13771 ft 347 kts 113°
2026-04-30 21:17 46.57489 0.82079 14449 ft 351 kts 113°
2026-04-30 21:17 46.56580 0.85388 15115 ft 354 kts 113°
2026-04-30 21:17 46.55660 0.88723 15746 ft 358 kts 113°
2026-04-30 21:17 46.54729 0.92096 16380 ft 361 kts 112°
2026-04-30 21:18 46.53785 0.95499 17013 ft 364 kts 113°
2026-04-30 21:18 46.52832 0.98923 17646 ft 368 kts 112°
2026-04-30 21:18 46.51904 1.02409 18272 ft 372 kts 108°
2026-04-30 21:18 46.51337 1.06092 18826 ft 376 kts 99°
2026-04-30 21:19 46.50993 1.09867 19099 ft 378 kts 98°
2026-04-30 21:19 46.50645 1.13672 19176 ft 386 kts 98°
2026-04-30 21:19 46.50281 1.17601 19188 ft 401 kts 98°
2026-04-30 21:19 46.49904 1.21641 19179 ft 417 kts 99°
2026-04-30 21:20 46.49506 1.25884 19190 ft 431 kts 99°
2026-04-30 21:20 46.49093 1.30252 19188 ft 441 kts 99°
2026-04-30 21:20 46.48671 1.34684 19187 ft 445 kts 99°
2026-04-30 21:20 46.48247 1.39126 19188 ft 445 kts 99°
2026-04-30 21:21 46.47820 1.43580 19188 ft 445 kts 99°
2026-04-30 21:21 46.47394 1.48028 19193 ft 446 kts 99°
2026-04-30 21:21 46.46540 1.56943 19193 ft 446 kts 99°
2026-04-30 21:22 46.46114 1.61401 19188 ft 446 kts 99°
2026-04-30 21:22 46.44819 1.74774 19196 ft 447 kts 99°
2026-04-30 21:23 46.44380 1.79232 19197 ft 446 kts 99°
2026-04-30 21:23 46.43941 1.83683 19195 ft 446 kts 99°
2026-04-30 21:23 46.43053 1.92586 19193 ft 446 kts 99°
2026-04-30 21:24 46.42605 1.97034 19190 ft 446 kts 99°
2026-04-30 21:24 46.42156 2.01489 19182 ft 446 kts 99°
2026-04-30 21:24 46.41707 2.05940 19180 ft 447 kts 99°
2026-04-30 21:24 46.41264 2.10352 19179 ft 447 kts 99°
2026-04-30 21:25 46.40364 2.19272 19179 ft 447 kts 99°
2026-04-30 21:25 46.39905 2.23737 19180 ft 448 kts 99°
2026-04-30 21:25 46.39443 2.28199 19182 ft 448 kts 99°
2026-04-30 21:26 46.38520 2.37140 19185 ft 448 kts 99°
2026-04-30 21:26 46.38060 2.41596 19177 ft 448 kts 99°
2026-04-30 21:27 46.37143 2.50507 19193 ft 447 kts 99°
2026-04-30 21:27 46.36762 2.54975 19195 ft 447 kts 98°
2026-04-30 21:27 46.36118 2.59368 19193 ft 446 kts 108°
2026-04-30 21:28 46.33180 2.67194 19204 ft 444 kts 126°
2026-04-30 21:28 46.31388 2.70767 19196 ft 445 kts 126°
2026-04-30 21:28 46.27714 2.77975 19195 ft 445 kts 127°
2026-04-30 21:29 46.25876 2.81578 19189 ft 445 kts 126°
2026-04-30 21:29 46.20608 2.92606 19195 ft 445 kts 115°
2026-04-30 21:30 46.19013 3.01232 19201 ft 446 kts 101°
2026-04-30 21:31 46.17327 3.14426 19196 ft 446 kts 101°
2026-04-30 21:31 46.16186 3.23211 19188 ft 445 kts 101°
2026-04-30 21:32 46.15041 3.31993 19187 ft 445 kts 101°
2026-04-30 21:32 46.14470 3.36326 19186 ft 445 kts 101°
2026-04-30 21:32 46.13892 3.40707 19185 ft 445 kts 101°
2026-04-30 21:32 46.13580 3.45142 19184 ft 445 kts 94°
2026-04-30 21:33 46.13391 3.49598 19184 ft 446 kts 94°
2026-04-30 21:33 46.13014 3.58525 19184 ft 446 kts 94°
2026-04-30 21:33 46.12825 3.62987 19185 ft 446 kts 94°
2026-04-30 21:34 46.12633 3.67452 19185 ft 446 kts 94°
2026-04-30 21:34 46.12243 3.76378 19187 ft 446 kts 94°
2026-04-30 21:34 46.12043 3.80837 19187 ft 446 kts 95°
2026-04-30 21:35 46.11841 3.85296 19188 ft 446 kts 95°
2026-04-30 21:35 46.11637 3.89762 19189 ft 446 kts 95°
2026-04-30 21:35 46.11414 3.94226 19188 ft 446 kts 97°
2026-04-30 21:35 46.10781 3.98591 19180 ft 445 kts 107°
2026-04-30 21:36 46.09890 4.02870 18957 ft 446 kts 107°
2026-04-30 21:36 46.09005 4.07129 18714 ft 444 kts 107°
2026-04-30 21:37 46.07266 4.15549 18119 ft 414 kts 107°
2026-04-30 21:37 46.06470 4.19393 17955 ft 397 kts 107°
2026-04-30 21:37 46.05677 4.23209 17518 ft 389 kts 107°
2026-04-30 21:37 46.04907 4.26867 16975 ft 385 kts 108°
2026-04-30 21:38 46.04034 4.30492 16410 ft 382 kts 111°
2026-04-30 21:38 46.03075 4.34045 15852 ft 379 kts 112°
2026-04-30 21:38 46.02283 4.37638 15315 ft 377 kts 99°
2026-04-30 21:38 46.02068 4.41381 14762 ft 374 kts 94°
2026-04-30 21:39 46.01924 4.45085 14032 ft 367 kts 94°
2026-04-30 21:39 46.01788 4.48741 12970 ft 363 kts 94°
2026-04-30 21:39 46.01654 4.52348 11942 ft 359 kts 94°
2026-04-30 21:39 46.01520 4.55912 10991 ft 353 kts 94°
2026-04-30 21:40 46.01387 4.59363 10543 ft 334 kts 94°
2026-04-30 21:40 46.01260 4.62571 10421 ft 309 kts 94°
2026-04-30 21:40 46.01139 4.65555 10140 ft 292 kts 94°
2026-04-30 21:40 46.01022 4.68426 9781 ft 284 kts 94°
2026-04-30 21:41 46.00907 4.71271 9651 ft 284 kts 94°
2026-04-30 21:41 46.00792 4.74104 9521 ft 284 kts 94°
2026-04-30 21:41 46.00677 4.76933 9374 ft 284 kts 94°
2026-04-30 21:41 46.00559 4.79779 8923 ft 285 kts 95°
2026-04-30 21:42 46.00441 4.82588 8482 ft 285 kts 95°
2026-04-30 21:42 46.00323 4.85412 8034 ft 284 kts 94°
2026-04-30 21:42 46.00206 4.88221 7515 ft 278 kts 94°
2026-04-30 21:42 46.00089 4.90983 7022 ft 275 kts 95°
2026-04-30 21:43 45.99970 4.93721 6554 ft 274 kts 95°
2026-04-30 21:43 45.99852 4.96443 6065 ft 272 kts 95°
2026-04-30 21:43 45.99737 4.99120 5697 ft 260 kts 94°
2026-04-30 21:43 45.99630 5.01624 5441 ft 243 kts 95°
2026-04-30 21:44 45.99175 5.03898 5329 ft 235 kts 124°
2026-04-30 21:44 45.98066 5.05502 5204 ft 223 kts 152°
2026-04-30 21:44 45.96608 5.06158 5075 ft 221 kts 176°
2026-04-30 21:44 45.95075 5.06260 4811 ft 220 kts 178°
2026-04-30 21:45 45.93546 5.06346 4506 ft 219 kts 179°
2026-04-30 21:45 45.92026 5.06450 4193 ft 218 kts 178°
2026-04-30 21:45 45.90538 5.06616 3904 ft 217 kts 176°
2026-04-30 21:45 45.89030 5.06805 3617 ft 218 kts 176°
2026-04-30 21:46 45.87520 5.06997 3320 ft 217 kts 177°
2026-04-30 21:46 45.86014 5.07188 3018 ft 217 kts 176°
2026-04-30 21:46 45.84547 5.07375 2723 ft 203 kts 177°
2026-04-30 21:46 45.83190 5.07551 2500 ft 185 kts 177°
2026-04-30 21:47 45.81966 5.07708 2241 ft 169 kts 177°
2026-04-30 21:47 45.80858 5.07847 2035 ft 151 kts 178°
2026-04-30 21:47 45.79852 5.07971 1829 ft 140 kts 176°
2026-04-30 21:47 45.78896 5.08086 1645 ft 136 kts 176°
2026-04-30 21:48 45.77956 5.08199 1465 ft 135 kts 175°
2026-04-30 21:48 45.77025 5.08314 1294 ft 133 kts 175°
2026-04-30 21:48 45.76100 5.08411 1091 ft 133 kts 174°
2026-04-30 21:48 45.75178 5.08534 929 ft 132 kts 175°
2026-04-30 21:49 45.74264 5.08645 778 ft 127 kts 175°
2026-04-30 21:49 45.73538 5.08734 781 ft 80 kts 175°
2026-04-30 21:49 45.73157 5.08781 790 ft 30 kts 175°
2026-04-30 21:49 45.73082 5.08790 790 ft 7 kts 175°
2026-04-30 21:50 45.73013 5.08785 791 ft 12 kts 197°
2026-04-30 21:50 45.72953 5.08685 792 ft 15 kts 259°
2026-04-30 21:50 45.72944 5.08538 791 ft 16 kts 265°
2026-04-30 21:50 45.72906 5.08382 790 ft 18 kts 219°
2026-04-30 21:51 45.72782 5.08361 791 ft 18 kts 175°
2026-04-30 21:51 45.72652 5.08376 792 ft 19 kts 175°
2026-04-30 21:51 45.72523 5.08393 796 ft 18 kts 175°
2026-04-30 21:51 45.72392 5.08409 797 ft 19 kts 175°
2026-04-30 21:52 45.72295 5.08417 799 ft 9 kts 187°
2026-04-30 21:52 45.72260 5.08354 799 ft 8 kts 249°
2026-04-30 21:52 45.72240 5.08279 797 ft 7 kts 248°
2026-04-30 21:52 45.72232 5.08252 797 ft 1 kts 249°
2026-04-30 21:53 45.72229 5.08241 797 ft 1 kts 249°
2026-04-30 21:53 45.72225 5.08226 797 ft 2 kts 249°
2026-04-30 21:53 45.72220 5.08207 797 ft 2 kts 249°
2026-04-30 21:53 45.72215 5.08189 797 ft 2 kts 249°
2026-04-30 21:54 45.72215 5.08187 797 ft 0 kts 249°